Regional Weather Roundup
Issued by NWS Charleston, SC

Current Version | Previous Version | Graphics & Text | Print | Product List | Glossary On
Versions: 1 2 3 4 5 6 7 8 9 10 11 12 13 14 15 16 17 18 19 20 21 22 23 24 25 26 27 28 29 30 31 32 33 34 35 36 37 38 39 40 41 42 43 44 45 46 47 48 49 50
000 ASUS42 KCHS 290527 RWRCHS REGIONAL WEATHER ROUNDUP NATIONAL WEATHER SERVICE CHARLESTON SC 100 AM EDT MON MAY 29 2017 NOTE: "FAIR" INDICATES FEW OR NO CLOUDS BELOW 12,000 FEET WITH NO SIGNIFICANT WEATHER AND/OR OBSTRUCTIONS TO VISIBILITY. NOT ALL STATIONS ARE QUALITY CONTROLLED. USE DATA WITH CAUTION... ESPECIALLY DEWPOINT OBSERVATIONS. SCZ027-030-031-034>040-042>050-290600- ...SOUTHEAST SOUTH CAROLINA... CITY SKY/WX TMP DP RH WIND PRES REMARKS N CHARLESTON PTCLDY 76 73 91 SW9 29.89F WATERFRONT PRK N/A 78 76 94 SW7 29.88S JOHNS ISLAND FAIR 79 75 89 SW8G14 29.90S PINOPOLIS N/A 81 72 74 CALM 29.82S MONCKS CORNER FAIR 72 70 94 CALM 29.89S SUMMERVILLE FAIR 73 70 88 CALM 29.90S BEAUFORT MCAS CLEAR 77 72 84 SW6 29.92R BEAUFORT ARPT FAIR 77 73 88 S5 29.92R HILTON HEAD IS CLEAR 79 77 94 S7 29.93S WALTERBORO PTCLDY 75 68 78 SW5 29.92R ALLENDALE FAIR 73 70 88 CALM 29.91R ...SOUTHERN MIDLANDS AND PEE DEE... CITY SKY/WX TMP DP RH WIND PRES REMARKS GEORGETOWN FAIR 72 72 100 CALM 29.88F KINGSTREE FAIR N/A N/A N/A CALM 29.88S ORANGEBURG CLEAR 72 70 93 CALM 29.90R BARNWELL FAIR 75 70 83 CALM 29.92R AIKEN FAIR 70 68 94 W5 29.95S MANNING FAIR 72 72 100 CALM 29.88F COLUMBIA CLEAR 73 69 87 CALM 29.89R SUMTER CLEAR 72 70 92 CALM 29.86S FLORENCE CLEAR 70 70 100 SW5 29.87F MYRTLE BEACH PTCLDY 74 71 91 SW7 29.88 N MYRTLE BEACH CLEAR 71 69 93 CALM 29.86F $$ GAZ063-065-086>088-099>101-113>116-118-119-134>141-150-290600- ...SOUTHEAST GEORGIA... CITY SKY/WX TMP DP RH WIND PRES REMARKS SAVANNAH ARPT CLEAR 76 67 73 W3 29.94R HUNTER AAF CLEAR 75 73 93 CALM 29.91R FORT STEWART CLEAR 76 67 73 SW7 29.93R STATESBORO PTCLDY 78 69 73 W3 29.94R SYLVANIA CLEAR 78 71 78 W3 29.94R CLAXTON FAIR 78 74 88 SW5 29.95S ...CSRA...CENTRAL AND FAR SOUTHEAST GEORGIA... CITY SKY/WX TMP DP RH WIND PRES REMARKS THOMSON PTCLDY 70 67 89 CALM 29.97F AUGUSTA-BUSH PTCLDY 73 69 87 W5 29.92R AUGUSTA-DANIEL MOCLDY 78 64 61 CALM 29.93R SWAINSBORO FAIR 77 68 73 W7 29.96S VIDALIA CLEAR 79 70 73 W6 29.97R EASTMAN FAIR 77 62 58 SW3 29.99S HAZLEHURST FAIR 78 72 81 W3 29.97R ALMA PTCLDY 80 71 74 W3 29.97R WAYCROSS PTCLDY 80 79 96 W5 29.98R JESUP FAIR 79 70 73 W3 29.97R BAXLEY FAIR 79 73 83 W5 29.97R BRUNSWICK CLEAR 81 73 78 SW8 29.97R SAINT SIMONS CLEAR 82 73 74 W8 29.96R $$ SCZ027-028-034-036>038-045-046-048>050-GAZ119-141-290600- ...LAKE AND SUPPLEMENTAL COASTAL OBSERVATIONS... STATION/POSITION TIME TEMP WIND PRES WAVE SWELL AIR SEA DIR/SP/G HT/PER HT/PER/DIR (UTC) (F) (DEG/KT/KT) (MB) (FT/S) (FT/S/D) WINYAH BAY 0430 78 200/ 7 1012.0S LAKE MURRAY 0430 76 250/ 7/ 9 1011.2S ACE BASIN NERRS 0430 78 CALM 1013.0S FORT PULASKI 0500 79 220/ 5/ 7 1013.8 SAPELO ISLAND 0500 80 240/ 8 1014.0 $$ ANZ835-935-AMZ111-154-330-350-352-354-370-450-454-472-290600- ...C-MAN AND BUOY OBSERVATIONS... STATION/POSITION TIME TEMP WIND PRES WAVE SWELL AIR SEA DIR/SP/G HT/PER HT/PER/DIR (UTC) (F) (DEG/KT/KT) (MB) (FT/S) (FT/S/D) BUOY 41004 0500 78 76 220/ 16/ 17 1012.1 BUOY 41008 0450 80 78 210/ 12/ 14 1013.5R 2/ 4 2/100/10 FOLLY BEACH CMAN 0500 78 220/ 13/ 16 1013.1F CAPERS NEARSHORE 0508 80 78 230/ 16/ 21 1011.8F FRIPP NEARSHORE 0508 79 79 210/ 12/ 16 1012.7R STATION/POSITION TIME TEMP WIND PRES WAVE SWELL AIR SEA DIR/SP/G HT/PER HT/PER/DIR (UTC) (F) (DEG/KT/KT) (MB) (FT/S) (FT/S/D) 5E ST. MARYS GA 0500 79 N/A 2/ 4 FRYING PAN BUOY 0510 76 75 230/ 14/ 16 1011.3 BUOY 41025 0450 76 76 230/ 21/ 25 1008.6F 5/ 6 CAPE LOOKOUT NC 0500 74 250/ 11/ 14 1009.1S BUOY 41002 0450 77 77 240/ 14/ 16 1015.2R 4/ 6 2/230/ 7 BUOY 41010 0510 80 80 190/ 14/ 16 1014.6 ST AUGUSTINE FL 0500 78 78 260/ 6/ 8 1016.2R $$

USA.gov is the U.S. government's official web portal to all federal, state and local government web resources and services.